Location: Overspoor
(51.4747°N, 5.6641°E)
Time: 00:33:59
(UTC+01:00)

ISS - Visible Passes

Search period start: 29 January 2022 00:00
Search period end: 08 February 2022 00:00
Orbit: 413 x 422 km, 51.6° (Epoch: 28 January)

Date Brightness Start Highest point End Pass type
(mag) Time Alt. Az. Time Alt. Az. Time Alt. Az.
29 Jan -3.8 19:05:00 10° W 19:08:20 81° SSW 19:09:19 43° ESE visible
29 Jan -0.4 20:41:55 10° W 20:42:15 12° W 20:42:15 12° W visible
30 Jan -3.8 18:16:53 10° W 18:20:14 89° N 18:23:19 12° E visible
30 Jan -2.3 19:53:43 10° W 19:56:15 35° SW 19:56:15 35° SW visible
31 Jan -3.2 19:05:33 10° W 19:08:49 53° SSW 19:10:20 27° SE visible
31 Jan -0.3 20:43:07 10° WSW 20:43:16 11° WSW 20:43:16 11° WSW visible
01 Feb -3.5 18:17:24 10° W 18:20:44 68° SSW 18:24:03 10° ESE visible
01 Feb -1.6 19:54:31 10° W 19:57:07 21° SW 19:57:26 21° SSW visible
02 Feb -2.0 19:06:10 10° W 19:09:07 29° SSW 19:11:43 12° SSE visible
03 Feb -2.5 18:17:54 10° W 18:21:05 40° SSW 18:24:14 10° SE visible
03 Feb -0.6 19:56:59 10° SW 19:57:08 10° SW 19:57:18 10° SW visible
04 Feb -0.9 19:07:12 10° WSW 19:09:13 15° SW 19:11:13 10° S visible
05 Feb -1.2 18:18:35 10° W 18:21:13 22° SW 18:23:51 10° SSE visible
07 Feb -0.2 18:20:27 10° SW 18:21:09 10° SW 18:21:50 10° SSW visible
